Location: Sommers-Bausch Observatory
(40.0037°N, 105.2635°W)
Time: 03:02:33
(UTC-06:00)

Amateur Radio Satellites - All Passes

Search period start: 30 April 2016 02:32
Search period end: 01 May 2016 02:32
Location: Sommers-Bausch Observatory, 40.0037°N, 105.2635°W

Satellite Date Start Highest point End Downlink Frequencies (MHz)
Time Altitude Azimuth
ITUPSAT 1 30 Apr 02:45:34 02:50:16 62° 259° (WSW) 02:55:01 437.325
Gurwin Techsat 1B 30 Apr 02:54:09 02:59:21 52° 100° (E) 03:04:30 435.225
MOZHAYETS 4 30 Apr 02:55:11 02:57:22 13° 63° (ENE) 02:59:33
SWISSCUBE 30 Apr 02:57:04 03:01:33 41° 261° (W) 03:06:04 437.505
ITAMSAT 1 30 Apr 02:58:35 03:02:40 23° 94° (E) 03:06:44 435.822/435.867
CUSAT 1 30 Apr 03:05:36 03:12:38 82° 262° (W) 03:20:40 437.405
KKS-1 30 Apr 03:13:21 03:17:21 33° 69° (ENE) 03:21:22 437.445
DANDE 30 Apr 03:18:43 03:24:58 69° 79° (E) 03:32:48 436.750
Oscar 19 30 Apr 03:26:07 03:30:44 33° 292° (WNW) 03:35:18 437.125/150
BEESAT 30 Apr 03:31:47 03:35:22 21° 266° (W) 03:38:59 436.000
PCSat 30 Apr 03:32:02 03:35:15 16° 256° (WSW) 03:38:26 145.827
GONETS M04 30 Apr 03:34:39 03:40:10 18° 298° (WNW) 03:45:44
STARS 30 Apr 03:38:47 03:42:42 32° 70° (ENE) 03:46:40 437.465
Cosmos 2499 30 Apr 03:54:32 03:58:59 17° 295° (WNW) 04:03:26 435.465 / 435.565
JAS-2 30 Apr 04:12:29 04:17:18 18° 303° (WNW) 04:22:12 435.910
RS-15 30 Apr 04:13:58 04:22:48 22° 14° (NNE) 04:31:47 29.354- 29.394
AO-7 30 Apr 04:16:36 04:24:27 44° 100° (E) 04:32:17 29.400- 29.500
MOZHAYETS 4 30 Apr 04:29:28 04:34:00 63° 259° (W) 04:38:32
BEESAT 3 30 Apr 04:30:05 04:34:04 78° 58° (ENE) 04:37:59 437.485
CUBESAT XI-V 30 Apr 04:31:05 04:33:41 15° 64° (ENE) 04:36:18 437.345
BEESAT 2 30 Apr 04:31:19 04:35:11 46° 54° (NE) 04:39:00 435.950
HORYU 2 30 Apr 04:34:05 04:35:49 12° 91° (E) 04:37:32 437.375
Gurwin Techsat 1B 30 Apr 04:35:05 04:38:53 20° 297° (WNW) 04:42:40 435.225
ITAMSAT 1 30 Apr 04:37:26 04:42:16 41° 290° (WNW) 04:47:06 435.822/435.867
CUSAT 1 30 Apr 04:50:11 04:54:02 15° 276° (W) 04:58:05 437.405
KKS-1 30 Apr 04:50:27 04:53:57 22° 265° (W) 04:57:29 437.445
DANDE 30 Apr 05:02:47 05:07:33 22° 271° (W) 05:13:01 436.750
STARS 30 Apr 05:15:35 05:19:05 23° 265° (W) 05:22:36 437.465
AIST 2 30 Apr 05:37:54 05:41:00 20° 46° (NE) 05:44:05 435.215
YUBILEINY 30 Apr 06:00:50 06:09:02 43° 74° (ENE) 06:17:12 435.215
CUBESAT XI-V 30 Apr 06:06:06 06:10:36 55° 260° (W) 06:15:08 437.345
HORYU 2 30 Apr 06:08:23 06:12:45 59° 286° (WNW) 06:17:04 437.375
AO-7 30 Apr 06:09:29 06:17:09 43° 298° (WNW) 06:24:49 29.400- 29.500
BEESAT 2 30 Apr 06:10:25 06:12:38 14° 250° (WSW) 06:14:49 435.950
STRAND 1 30 Apr 06:10:55 06:14:12 17° 63° (ENE) 06:17:28 437.568
Cubesat XI-IV 30 Apr 06:27:02 06:31:09 22° 94° (E) 06:35:15 437.490
RS-15 30 Apr 06:27:37 06:39:25 49° 45° (NE) 06:51:13 29.354- 29.394
NOAA 15 30 Apr 06:35:36 06:40:39 41° 99° (E) 06:45:38 137.62
GOMX 1 30 Apr 06:37:13 06:40:13 15° 89° (E) 06:43:09 467.674
Cosmos 2491 30 Apr 06:42:11 06:50:13 41° 87° (E) 06:58:16 435.465 / 435.565
BRITE-PL 30 Apr 06:46:03 06:51:20 38° 96° (E) 06:56:32 437.365/2234.400
NOAA 18 30 Apr 07:09:48 07:15:17 74° 104° (ESE) 07:20:42 137.9125
M-CUBED/EXP-1 PRIME 30 Apr 07:14:24 07:16:54 16° 96° (E) 07:19:16 437.505
AIST 2 30 Apr 07:15:44 07:19:40 42° 244° (WSW) 07:23:34 435.215
PRISM 30 Apr 07:17:14 07:19:01 13° 63° (ENE) 07:20:48 437.425
CUTE-I 30 Apr 07:22:41 07:28:01 76° 103° (ESE) 07:33:20 437.470
Cosmos 2504 30 Apr 07:34:02 07:41:07 42° 76° (ENE) 07:48:38 435.465 / 435.565
AUBIESAT-1 30 Apr 07:35:14 07:38:22 23° 99° (E) 07:41:19 437.475
LilacSat-2 30 Apr 07:43:04 07:46:47 52° 286° (WNW) 07:50:28 437.200
STRAND 1 30 Apr 07:47:52 07:52:53 58° 259° (W) 07:57:56 437.568
ISS 30 Apr 07:51:41 07:54:17 22° 133° (SE) 07:56:54 145.825
SO-50 30 Apr 07:54:02 07:58:47 53° 117° (ESE) 08:03:35 436.795
CINEMA 3 30 Apr 07:55:28 07:56:41 11° 88° (E) 07:57:53 145.822/145.860
HO-68 30 Apr 07:57:26 08:02:20 19° 92° (E) 08:07:12 435.675
YUBILEINY 30 Apr 07:57:50 08:05:42 40° 274° (W) 08:13:34 435.215
Cubesat XI-IV 30 Apr 08:06:22 08:11:23 44° 290° (WNW) 08:16:25 437.490
GOMX 1 30 Apr 08:13:20 08:18:48 69° 285° (WNW) 08:24:03 467.674
SEEDS 30 Apr 08:13:40 08:14:55 11° 90° (E) 08:16:10 437.485
NOAA 15 30 Apr 08:15:53 08:20:09 25° 295° (WNW) 08:24:25 137.62
DOVE 4 30 Apr 08:24:29 08:29:43 80° 102° (ESE) 08:34:39 437.250
BRITE-PL 30 Apr 08:24:41 08:29:36 31° 292° (WNW) 08:34:30 437.365/2234.400
Cosmos 2491 30 Apr 08:38:42 08:46:56 43° 286° (WNW) 08:55:17 435.465 / 435.565
RS-15 30 Apr 08:40:23 08:52:13 57° 248° (WSW) 09:04:01 29.354- 29.394
CANX-2 30 Apr 08:40:59 08:44:55 38° 98° (E) 08:48:51 2200.000
M-CUBED/EXP-1 PRIME 30 Apr 08:47:57 08:51:39 35° 295° (WNW) 08:55:05 437.505
PRISM 30 Apr 08:49:53 08:53:52 53° 259° (W) 08:57:53 437.425
NOAA 18 30 Apr 08:52:11 08:55:16 16° 300° (WNW) 08:58:22 137.9125
AAUSAT CUBESAT 2 30 Apr 08:54:47 08:57:48 19° 94° (E) 09:00:49 437.432
CUBEBUG 2 30 Apr 09:00:58 09:03:53 17° 92° (E) 09:06:43 437.445
UWE-3 30 Apr 09:01:01 09:02:25 11° 90° (E) 09:03:46 435.000/436.395/437.385
CUTE-I 30 Apr 09:04:36 09:07:24 15° 300° (WNW) 09:10:11 437.470
ANTELSAT 30 Apr 09:09:30 09:10:28 11° 61° (ENE) 09:11:25 437.575/2403.000
AUBIESAT-1 30 Apr 09:09:34 09:12:49 24° 297° (WNW) 09:15:53 437.475
CUTE 1.7 + AOD 2 30 Apr 09:14:10 09:18:23 82° 102° (ESE) 09:22:36 437.475
ISS 30 Apr 09:27:30 09:30:36 39° 329° (NNW) 09:33:42 145.825
Cosmos 2504 30 Apr 09:27:36 09:34:19 36° 272° (W) 09:41:27 435.465 / 435.565
CINEMA 3 30 Apr 09:29:40 09:34:22 68° 285° (WNW) 09:38:48 145.822/145.860
SO-50 30 Apr 09:35:43 09:39:35 23° 315° (NW) 09:43:28 436.795
ZACube-1 30 Apr 09:36:54 09:40:00 20° 93° (E) 09:43:04 437.345
HO-68 30 Apr 09:43:31 09:50:40 74° 289° (WNW) 09:57:47 435.675
SEEDS 30 Apr 09:46:52 09:50:58 56° 285° (WNW) 09:55:04 437.485
COMPASS 1 30 Apr 09:55:36 09:59:42 63° 285° (WNW) 10:03:49 437.405
UNISAT 6 30 Apr 09:59:59 10:04:14 35° 71° (ENE) 10:08:26 437.425
DOVE 4 30 Apr 10:04:17 10:06:37 13° 300° (WNW) 10:08:55 437.250
CANX-2 30 Apr 10:17:40 10:20:29 18° 294° (WNW) 10:23:20 2200.000
TIGRISAT 30 Apr 10:18:12 10:22:44 52° 73° (ENE) 10:27:13 435.000
Oscar 11 30 Apr 10:23:58 10:28:18 83° 103° (ESE) 10:32:35 145.826/435.025
NANOSAT C BR1 30 Apr 10:24:27 10:25:57 12° 63° (ENE) 10:27:28 145.865
AAUSAT CUBESAT 2 30 Apr 10:29:40 10:33:20 32° 289° (WNW) 10:37:01 437.432
DELFI C3 30 Apr 10:31:20 10:35:11 47° 99° (E) 10:39:02 145.870
FUNcube-1 30 Apr 10:31:30 10:35:44 82° 102° (ESE) 10:39:53 145.935
UWE-3 30 Apr 10:35:03 10:39:16 56° 286° (WNW) 10:43:22 435.000/436.395/437.385
CUBEBUG 2 30 Apr 10:36:38 10:40:40 37° 289° (WNW) 10:44:35 437.445
ANTELSAT 30 Apr 10:41:49 10:46:30 83° 258° (WSW) 10:51:08 437.575/2403.000
HUMSAT D 30 Apr 11:04:26 11:08:25 48° 99° (E) 11:12:21 437.325/437.525
ISS 30 Apr 11:06:09 11:07:46 13° 348° (NNW) 11:09:22 145.825
QB50P2 30 Apr 11:11:39 11:15:41 42° 72° (ENE) 11:19:44 145.880/145.840
ZACube-1 30 Apr 11:12:36 11:16:22 31° 290° (WNW) 11:20:03 437.345
POLYITAN 1 30 Apr 11:13:45 11:17:48 42° 72° (ENE) 11:21:53 437.675
AIST 1 30 Apr 11:14:25 11:17:18 17° 72° (ENE) 11:20:10
DUCHIFAT 1 30 Apr 11:15:23 11:19:21 39° 71° (ENE) 11:23:21 145.980
POPSAT HIP 1 30 Apr 11:17:06 11:21:11 45° 72° (ENE) 11:25:17 437.405
QB50P1 30 Apr 11:20:33 11:24:41 50° 73° (ENE) 11:28:51 145.935-145.965
VELOX 1 30 Apr 11:24:55 11:25:46 10° 90° (E) 11:26:37 145.980
DX 1 30 Apr 11:31:27 11:32:34 11° 90° (E) 11:33:40 434.975-435.025
PHONESAT 2.4 30 Apr 11:33:11 11:36:05 35° 157° (SSE) 11:39:00 2401.200-2431.200
HO-68 30 Apr 11:33:41 11:37:11 14° 307° (NW) 11:40:40 435.675
UNISAT 6 30 Apr 11:37:21 11:40:59 22° 266° (W) 11:44:36 437.425
UKube-1 30 Apr 11:42:42 11:44:19 12° 91° (E) 11:45:56 .
GONETS M04 30 Apr 11:44:36 11:52:58 46° 75° (ENE) 12:01:14
Cosmos 2499 30 Apr 11:49:03 11:55:15 26° 70° (ENE) 12:01:46 435.465 / 435.565
AISAT 30 Apr 11:54:08 11:57:49 25° 95° (E) 12:01:28 437.250
NANOSAT C BR1 30 Apr 11:56:54 12:01:08 64° 259° (WSW) 12:05:24 145.865
TIGRISAT 30 Apr 11:56:59 11:59:41 15° 268° (W) 12:02:22 435.000
ESTCUBE 1 30 Apr 12:00:49 12:05:05 39° 98° (E) 12:09:19 437.505/2401.250
DELFI C3 30 Apr 12:07:45 12:09:39 13° 295° (WNW) 12:11:34 145.870
BUGSAT 1 30 Apr 12:08:48 12:13:01 78° 76° (ENE) 12:17:17 437.445
SPROUT 30 Apr 12:17:02 12:19:32 15° 92° (E) 12:22:00 437.525
50 SAT 30 Apr 12:33:05 12:36:44 82° 101° (ESE) 12:40:24 437.505
JAS-2 30 Apr 12:37:32 12:42:57 41° 67° (ENE) 12:49:03 435.910
CUBEBUG 1 30 Apr 12:38:18 12:42:45 72° 101° (ESE) 12:47:11 437.445
Gurwin Techsat 1B 30 Apr 12:40:14 12:40:45 10° 57° (ENE) 12:41:17 435.225
HUMSAT D 30 Apr 12:41:37 12:43:37 13° 295° (WNW) 12:45:36 437.325/437.525
ISS 30 Apr 12:43:59 12:45:21 12° 9° (N) 12:46:43 145.825
QB50P2 30 Apr 12:49:00 12:51:41 16° 268° (W) 12:54:22 145.880/145.840
AIST 1 30 Apr 12:50:57 12:55:05 40° 268° (W) 12:59:11
POLYITAN 1 30 Apr 12:51:09 12:53:48 16° 268° (W) 12:56:27 437.675
DUCHIFAT 1 30 Apr 12:52:24 12:55:12 17° 267° (W) 12:58:00 145.980
POPSAT HIP 1 30 Apr 12:54:43 12:57:11 15° 268° (W) 12:59:40 437.405
VELOX 1 30 Apr 12:58:13 13:02:41 68° 285° (WNW) 13:07:06 145.980
QB50P1 30 Apr 12:58:38 13:00:45 13° 269° (W) 13:02:52 145.935-145.965
TISAT 1 30 Apr 13:01:47 13:03:52 13° 92° (E) 13:05:56 437.305
Oscar 19 30 Apr 13:02:57 13:07:45 40° 70° (ENE) 13:12:35 437.125/150
DX 1 30 Apr 13:04:47 13:09:09 64° 286° (WNW) 13:13:29 434.975-435.025
PHONESAT 2.4 30 Apr 13:09:40 13:12:49 87° 346° (NNW) 13:16:01 2401.200-2431.200
AO-85 30 Apr 13:14:31 13:19:41 46° 115° (ESE) 13:24:53 145.980
UKube-1 30 Apr 13:16:27 13:20:43 58° 287° (WNW) 13:24:57 .
AO-7 30 Apr 13:28:42 13:31:43 12° 45° (NE) 13:34:43 29.400- 29.500
AISAT 30 Apr 13:30:23 13:34:16 30° 291° (WNW) 13:38:08 437.250
ESTCUBE 1 30 Apr 13:38:20 13:41:36 20° 294° (WNW) 13:44:52 437.505/2401.250
Cosmos 2499 30 Apr 13:41:14 13:48:46 62° 267° (W) 13:56:54 435.465 / 435.565
GONETS M04 30 Apr 13:41:47 13:49:33 37° 274° (W) 13:57:16
SPROUT 30 Apr 13:51:36 13:55:42 44° 288° (WNW) 13:59:46 437.525
Gurwin Techsat 1B 30 Apr 14:14:29 14:19:47 77° 75° (ENE) 14:25:07 435.225
ITAMSAT 1 30 Apr 14:15:46 14:20:23 34° 68° (ENE) 14:25:01 435.822/435.867
CUBEBUG 1 30 Apr 14:17:04 14:18:25 11° 298° (WNW) 14:19:47 437.445
ISS 30 Apr 14:19:38 14:22:36 31° 29° (NNE) 14:25:34 145.825
JAS-2 30 Apr 14:23:08 14:28:09 30° 267° (W) 14:33:44 435.910
TISAT 1 30 Apr 14:35:42 14:39:48 48° 287° (WNW) 14:43:50 437.305
Oscar 19 30 Apr 14:43:06 14:47:11 24° 266° (W) 14:51:19 437.125/150
PHONESAT 2.4 30 Apr 14:46:35 14:49:45 85° 188° (S) 14:52:56 2401.200-2431.200
ITUPSAT 1 30 Apr 14:46:49 14:51:11 34° 98° (E) 14:55:32 437.325
O/OREOS (USA 219) 30 Apr 14:47:35 14:51:06 22° 101° (ESE) 14:54:37 437.305
AO-85 30 Apr 14:55:39 15:00:24 29° 313° (NW) 15:05:05 145.980
SWISSCUBE 30 Apr 14:57:31 15:02:10 51° 100° (E) 15:06:48 437.505
AO-7 30 Apr 15:14:41 15:22:41 56° 65° (ENE) 15:30:44 29.400- 29.500
BEESAT 30 Apr 15:31:00 15:35:46 80° 286° (WNW) 15:40:31 436.000
HORYU 2 30 Apr 15:32:12 15:33:49 12° 62° (ENE) 15:35:26 437.375
ITAMSAT 1 30 Apr 15:55:25 15:59:51 28° 264° (W) 16:04:17 435.822/435.867
ISS 30 Apr 15:56:07 15:59:02 30° 225° (SW) 16:01:56 145.825
Gurwin Techsat 1B 30 Apr 15:58:11 16:00:18 12° 271° (W) 16:02:25 435.225
CUSAT 1 30 Apr 16:10:44 16:13:53 61° 283° (WNW) 16:17:58 437.405
PHONESAT 2.4 30 Apr 16:23:40 16:26:26 27° 206° (SSW) 16:29:12 2401.200-2431.200
ITUPSAT 1 30 Apr 16:25:01 16:28:50 24° 293° (WNW) 16:32:39 437.325
MOZHAYETS 4 30 Apr 16:25:19 16:29:23 31° 96° (E) 16:33:25
O/OREOS (USA 219) 30 Apr 16:26:02 16:30:16 35° 298° (WNW) 16:34:30 437.305
SO-50 30 Apr 16:26:22 16:30:50 39° 51° (NE) 16:35:09 436.795
PCSat 30 Apr 16:27:43 16:33:05 71° 116° (ESE) 16:38:31 145.827
DANDE 30 Apr 16:30:32 16:33:13 72° 98° (E) 16:36:26 436.750
SWISSCUBE 30 Apr 16:36:28 16:39:34 17° 296° (WNW) 16:42:38 437.505
KKS-1 30 Apr 16:40:47 16:45:16 73° 102° (ESE) 16:49:43 437.445
Cosmos 2491 30 Apr 16:53:59 16:59:56 19° 63° (ENE) 17:05:51 435.465 / 435.565
NOAA 18 30 Apr 16:57:18 17:00:56 18° 61° (ENE) 17:04:34 137.9125
STARS 30 Apr 17:04:28 17:08:53 68° 102° (ESE) 17:13:14 437.465
HORYU 2 30 Apr 17:05:19 17:09:47 70° 258° (WSW) 17:14:16 437.375
CUTE-I 30 Apr 17:06:50 17:09:49 15° 61° (ENE) 17:12:46 437.470
AO-7 30 Apr 17:08:37 17:15:46 32° 263° (W) 17:22:58 29.400- 29.500
GOMX 1 30 Apr 17:44:56 17:47:40 15° 61° (ENE) 17:50:28 467.674
Cubesat XI-IV 30 Apr 17:48:11 17:52:59 35° 68° (ENE) 17:57:48 437.490
NOAA 15 30 Apr 17:54:56 18:00:06 62° 72° (ENE) 18:05:19 137.62
BRITE-PL 30 Apr 17:56:20 18:00:37 35° 69° (ENE) 18:05:13 437.365/2234.400
M-CUBED/EXP-1 PRIME 30 Apr 17:58:57 18:02:47 25° 63° (ENE) 18:06:36 437.505
MOZHAYETS 4 30 Apr 18:02:42 18:06:24 25° 292° (WNW) 18:10:05
CUBESAT XI-V 30 Apr 18:03:14 18:07:36 38° 98° (E) 18:11:58 437.345
SO-50 30 Apr 18:07:23 18:11:04 23° 249° (WSW) 18:14:39 436.795
PCSat 30 Apr 18:13:13 18:17:02 19° 315° (NW) 18:20:53 145.827
AUBIESAT-1 30 Apr 18:19:30 18:23:38 33° 65° (ENE) 18:27:45 437.475
KKS-1 30 Apr 18:19:49 18:21:12 11° 299° (WNW) 18:22:37 437.445
BEESAT 3 30 Apr 18:21:50 18:24:06 15° 110° (ESE) 18:26:23 437.485
LilacSat-2 30 Apr 18:23:53 18:27:44 65° 76° (ENE) 18:31:36 437.200
HO-68 30 Apr 18:27:30 18:31:15 15° 53° (NE) 18:35:00 435.675
NOAA 18 30 Apr 18:35:34 18:41:03 64° 258° (WSW) 18:46:32 137.9125
STARS 30 Apr 18:43:03 18:44:39 12° 298° (WNW) 18:46:15 437.465
CUTE-I 30 Apr 18:43:55 18:49:14 72° 257° (WSW) 18:54:34 437.470
Cosmos 2491 30 Apr 18:49:07 18:58:00 88° 262° (W) 19:06:46 435.465 / 435.565
CINEMA 3 30 Apr 18:56:08 18:58:04 12° 61° (ENE) 18:59:59 145.822/145.860
YUBILEINY 30 Apr 19:00:41 19:09:00 51° 89° (E) 19:17:18 435.215
GOMX 1 30 Apr 19:20:07 19:25:00 71° 259° (W) 19:30:16 467.674
DOVE 4 30 Apr 19:28:20 19:33:20 72° 75° (ENE) 19:38:36 437.250
Cubesat XI-IV 30 Apr 19:28:31 19:33:04 28° 264° (W) 19:37:39 437.490
M-CUBED/EXP-1 PRIME 30 Apr 19:32:45 19:37:06 37° 258° (WSW) 19:41:28 437.505
CANX-2 30 Apr 19:33:24 19:36:52 25° 69° (ENE) 19:40:20 2200.000
BRITE-PL 30 Apr 19:35:20 19:39:10 25° 268° (W) 19:43:17 437.365/2234.400
NOAA 15 30 Apr 19:37:12 19:40:17 16° 269° (W) 19:43:23 137.62
CUBESAT XI-V 30 Apr 19:41:10 19:44:44 22° 293° (WNW) 19:48:18 437.345
AAUSAT CUBESAT 2 30 Apr 19:45:48 19:47:37 13° 65° (ENE) 19:49:27 437.432
AUBIESAT-1 30 Apr 19:54:09 19:58:03 27° 260° (W) 20:01:59 437.475
BEESAT 3 30 Apr 19:57:39 20:01:26 44° 306° (NW) 20:05:15 437.485
UWE-3 30 Apr 19:58:01 19:59:17 11° 62° (ENE) 20:00:33 435.000/436.395/437.385
CUBEBUG 2 30 Apr 19:58:30 20:01:27 17° 65° (ENE) 20:04:23 437.445
STRAND 1 30 Apr 19:58:56 20:03:54 50° 100° (E) 20:08:51 437.568
BEESAT 2 30 Apr 19:59:59 20:03:57 73° 302° (WNW) 20:07:58 435.950
CUTE 1.7 + AOD 2 30 Apr 20:05:56 20:10:01 51° 74° (ENE) 20:14:07 437.475
HO-68 30 Apr 20:10:41 20:17:50 78° 72° (ENE) 20:25:00 435.675
Cosmos 2504 30 Apr 20:12:44 20:19:08 34° 87° (E) 20:25:23 435.465 / 435.565
CINEMA 3 30 Apr 20:29:27 20:34:27 84° 258° (WSW) 20:39:31 145.822/145.860
ZACube-1 30 Apr 20:32:20 20:35:17 17° 66° (ENE) 20:38:10 437.345
PRISM 30 Apr 20:32:38 20:35:48 21° 95° (E) 20:38:58 437.425
SEEDS 30 Apr 20:37:28 20:41:39 88° 69° (ENE) 20:45:50 437.485
COMPASS 1 30 Apr 20:45:18 20:49:26 77° 75° (ENE) 20:53:34 437.405
Cosmos 2491 30 Apr 20:48:32 20:53:27 16° 283° (WNW) 20:58:22 435.465 / 435.565
RS-15 30 Apr 20:52:57 21:01:39 27° 101° (ESE) 21:10:39 29.354- 29.394
YUBILEINY 30 Apr 20:58:18 21:06:02 34° 289° (WNW) 21:13:48 435.215
CANX-2 30 Apr 21:09:07 21:12:38 25° 265° (W) 21:16:11 2200.000
DOVE 4 30 Apr 21:09:18 21:11:35 13° 272° (W) 21:13:55 437.250
AIST 2 30 Apr 21:12:17 21:16:12 44° 116° (ESE) 21:20:09 435.215
DELFI C3 30 Apr 21:17:07 21:20:22 25° 70° (ENE) 21:23:36 145.870
Oscar 11 30 Apr 21:17:45 21:21:59 57° 74° (ENE) 21:26:13 145.826/435.025
AAUSAT CUBESAT 2 30 Apr 21:18:39 21:22:40 53° 260° (W) 21:26:42 437.432
FUNcube-1 30 Apr 21:25:42 21:30:10 58° 74° (ENE) 21:34:34 145.935
UWE-3 30 Apr 21:30:26 21:35:06 80° 259° (W) 21:39:43 435.000/436.395/437.385
CUBEBUG 2 30 Apr 21:33:00 21:37:38 53° 260° (W) 21:42:15 437.445
STRAND 1 30 Apr 21:39:04 21:42:41 20° 296° (WNW) 21:46:18 437.568
CUTE 1.7 + AOD 2 30 Apr 21:44:20 21:46:09 12° 269° (W) 21:47:59 437.475
AO-85 30 Apr 21:47:43 21:52:03 31° 48° (NE) 21:56:01 145.980
HUMSAT D 30 Apr 21:55:02 21:58:47 31° 71° (ENE) 22:02:31 437.325/437.525
HO-68 30 Apr 22:01:32 22:06:13 18° 269° (W) 22:10:55 435.675
Cosmos 2504 30 Apr 22:05:31 22:12:19 40° 285° (WNW) 22:19:00 435.465 / 435.565
ZACube-1 30 Apr 22:06:48 22:11:12 46° 261° (W) 22:15:33 437.345
PRISM 30 Apr 22:07:28 22:11:08 31° 290° (WNW) 22:14:48 437.425
TIGRISAT 30 Apr 22:13:46 22:14:13 10° 89° (E) 22:14:41 435.000
ANTELSAT 30 Apr 22:35:15 22:38:29 20° 94° (E) 22:41:39 437.575/2403.000
UKube-1 30 Apr 22:38:16 22:38:49 10° 61° (ENE) 22:39:22 .
AISAT 30 Apr 22:51:14 22:54:34 21° 66° (ENE) 22:57:55 437.250
AIST 2 30 Apr 22:51:52 22:54:54 19° 314° (NW) 22:57:57 435.215
DELFI C3 30 Apr 22:52:03 22:55:11 22° 265° (W) 22:58:19 145.870
Oscar 11 30 Apr 22:56:52 22:58:27 12° 270° (W) 23:00:03 145.826/435.025
ESTCUBE 1 30 Apr 22:59:46 23:03:46 33° 70° (ENE) 23:07:47 437.505/2401.250
RS-15 30 Apr 23:01:21 23:12:40 80° 303° (WNW) 23:24:40 29.354- 29.394
FUNcube-1 30 Apr 23:04:42 23:06:43 13° 269° (W) 23:08:44 145.935
50 SAT 30 Apr 23:11:15 23:14:32 32° 72° (ENE) 23:17:49 437.505
SPROUT 30 Apr 23:11:22 23:12:52 12° 63° (ENE) 23:14:22 437.525
AO-85 30 Apr 23:28:24 23:32:25 29° 248° (WSW) 23:36:08 145.980
UNISAT 6 30 Apr 23:28:40 23:33:02 84° 103° (ESE) 23:37:19 437.425
HUMSAT D 30 Apr 23:31:16 23:34:27 20° 266° (W) 23:37:38 437.325/437.525
CUBEBUG 1 30 Apr 23:33:22 23:37:36 53° 73° (ENE) 23:41:55 437.445
NANOSAT C BR1 30 Apr 23:42:46 23:45:58 21° 94° (E) 23:49:08 145.865
TIGRISAT 30 Apr 23:47:03 23:51:23 64° 285° (WNW) 23:55:35 435.000
BUGSAT 1 30 Apr 23:53:34 23:55:07 12° 91° (E) 23:56:40 437.445
VELOX 1 30 Apr 23:54:29 23:58:55 85° 257° (WSW) 00:03:23 145.980
TISAT 1 30 Apr 23:54:52 23:55:21 10° 62° (ENE) 23:55:49 437.305
DX 1 30 Apr 23:59:14 00:03:36 82° 259° (WSW) 00:07:59 434.975-435.025
UKube-1 01 May 00:09:54 00:14:13 76° 258° (WSW) 00:18:34 .
ANTELSAT 01 May 00:11:23 00:15:16 33° 290° (WNW) 00:19:05 437.575/2403.000
AISAT 01 May 00:26:45 00:30:49 35° 263° (W) 00:34:55 437.250
Cosmos 2499 01 May 00:27:49 00:32:12 18° 81° (E) 00:36:33 435.465 / 435.565
QB50P2 01 May 00:32:40 00:36:57 87° 102° (ESE) 00:41:10 145.880/145.840
POLYITAN 1 01 May 00:34:48 00:39:04 89° 109° (ESE) 00:43:17 437.675
DUCHIFAT 1 01 May 00:35:27 00:39:42 80° 102° (ESE) 00:43:53 145.980
ESTCUBE 1 01 May 00:37:09 00:40:37 22° 266° (W) 00:44:06 437.505/2401.250
POPSAT HIP 1 01 May 00:38:01 00:42:17 87° 282° (WNW) 00:46:30 437.405
QB50P1 01 May 00:41:29 00:45:45 78° 284° (WNW) 00:49:57 145.935-145.965
SPROUT 01 May 00:43:59 00:48:15 66° 259° (WSW) 00:52:34 437.525
GONETS M04 01 May 00:44:20 00:52:51 55° 90° (E) 01:01:22
50 SAT 01 May 00:46:17 00:48:25 15° 267° (W) 00:50:34 437.505
O/OREOS (USA 219) 01 May 00:57:15 01:01:28 37° 62° (ENE) 01:05:39 437.305
CUSAT 1 01 May 01:01:59 01:06:09 16° 65° (ENE) 01:10:36 437.405
BEESAT 01 May 01:02:18 01:04:09 12° 61° (ENE) 01:06:00 436.000
CUBEBUG 1 01 May 01:12:10 01:14:13 13° 269° (W) 01:16:17 437.445
PCSat 01 May 01:16:19 01:21:35 49° 56° (NE) 01:26:49 145.827
Oscar 19 01 May 01:16:31 01:19:23 15° 91° (E) 01:22:14 437.125/150
RS-15 01 May 01:17:40 01:27:22 29° 331° (NNW) 01:37:31 29.354- 29.394
NANOSAT C BR1 01 May 01:17:59 01:21:45 31° 290° (WNW) 01:25:27 145.865
AIST 1 01 May 01:19:00 01:23:16 66° 279° (W) 01:27:35
TISAT 1 01 May 01:26:08 01:30:23 74° 260° (W) 01:34:39 437.305
BUGSAT 1 01 May 01:26:43 01:30:50 54° 287° (WNW) 01:34:53 437.445
DANDE 01 May 01:27:01 01:28:02 10° 65° (ENE) 01:29:04 436.750
JAS-2 01 May 01:30:57 01:38:22 45° 97° (E) 01:45:45 435.910
ITUPSAT 1 01 May 01:52:54 01:57:16 38° 70° (ENE) 02:01:39 437.325
SWISSCUBE 01 May 02:03:12 02:07:49 54° 72° (ENE) 02:12:28 437.505
Cosmos 2499 01 May 02:17:20 02:24:26 72° 279° (W) 02:31:32 435.465 / 435.565
